sat.trackr.live / text

‹ back to catalog

STARLINK-34812

NORAD 66026 · 2025-232X

PAYLOAD ACTIVE UNKNOWN

§ Identity

Operator
Country
US
Launch date
2025-10-16
Launch site
AFETR
Launch vehicle
Mass (kg)
RCS (m²)

Purposes: comms

External: N2YO · Heavens-Above · Gunter

§ Orbital elements

Epoch: 2026-09-20T06:26:04.355808Z

Period
93.85 min
Inclination
53.1577°
Eccentricity
0.0001657
Mean motion
15.34399911 rev/d
Perigee alt
461.6 km
Apogee alt
463.8 km
Semi-major
6,840.8 km
B*
7.0251e-4
RAAN
276.7590°
Arg perigee
90.8641°
Mean anomaly
269.2552°
Rev number
5,326

§ Raw data

STARLINK-348121 66026U 25232X   26263.26810597  .00023433  00000+0  70251-3 0  99932 66026  53.1577 276.7590 0001657  90.8641 269.2552 15.34399911 53265

JSON: /api/v1/satellites/66026 · /tle

For live sub-satellite position, see the globe view (requires WebGL).

§ Visibility from observer

Set your observer location to see the next 7 days of passes ≥ 10°. The values pass through the URL so the page stays shareable.

No JS? Fill the form by hand. The geolocation button needs JavaScript.